Location: Kuffner-Sternwarte
(48.2130°N, 16.2960°E)
Time: 15:47:35
(UTC+02:00)

COROT - Pass Details

Date: 13 May 2026
Orbit: 594 x 855 km, 90.1° (Epoch: 21 May)

Event Time Altitude Azimuth Distance (km) Brightness Sun altitude
Rises 23:14:22 0° 6° (N) 3,359 10.3 -19.8°
Reaches altitude 10° 23:16:55 10° 12° (NNE) 2,390 9.3 -20.0°
Maximum altitude 23:22:03 47° 86° (E) 1,015 6.4 -20.3°
Enters shadow 23:23:19 39° 125° (SE) 1,133 6.4 -20.4°
